TimeEST,TemperatureF,Dew PointF,Humidity,Sea Level PressureIn,VisibilityMPH,Wind Direction,Wind SpeedMPH,Gust SpeedMPH,PrecipitationIn,Events,Conditions,WindDirDegrees,DateUTC
12:15 AM,53.6,53.6,100,30.09,3.0,Calm,Calm,-,N/A,,Clear,0,2012-12-09 05:15:00
12:35 AM,53.6,53.6,100,30.09,5.0,Calm,Calm,-,N/A,,Clear,0,2012-12-09 05:35:00
12:55 AM,53.6,53.6,100,30.09,3.0,Calm,Calm,-,N/A,,Clear,0,2012-12-09 05:55:00
1:15 AM,51.8,51.8,100,30.08,2.0,Calm,Calm,-,N/A,,Clear,0,2012-12-09 06:15:00
1:35 AM,51.8,51.8,100,30.08,3.0,Calm,Calm,-,N/A,,Clear,0,2012-12-09 06:35:00
2:15 AM,51.8,51.8,100,30.09,5.0,Calm,Calm,-,N/A,,Clear,0,2012-12-09 07:15:00
2:35 AM,51.8,51.8,100,30.09,3.0,Calm,Calm,-,N/A,,Clear,0,2012-12-09 07:35:00
2:55 AM,51.8,51.8,100,30.09,4.0,Calm,Calm,-,N/A,,Clear,0,2012-12-09 07:55:00
3:15 AM,51.8,51.8,100,30.09,3.0,Calm,Calm,-,N/A,,Clear,0,2012-12-09 08:15:00
3:35 AM,51.8,51.8,100,30.09,3.0,Calm,Calm,-,N/A,,Clear,0,2012-12-09 08:35:00
3:55 AM,51.8,51.8,100,30.09,4.0,Calm,Calm,-,N/A,,Clear,0,2012-12-09 08:55:00
4:15 AM,51.8,51.8,100,30.08,3.0,Calm,Calm,-,N/A,,Clear,0,2012-12-09 09:15:00
4:35 AM,51.8,51.8,100,30.08,3.0,Calm,Calm,-,N/A,,Clear,0,2012-12-09 09:35:00
4:55 AM,51.8,51.8,100,30.09,3.0,Calm,Calm,-,N/A,,Partly Cloudy,0,2012-12-09 09:55:00
5:15 AM,51.8,51.8,100,30.09,3.0,Calm,Calm,-,N/A,,Partly Cloudy,0,2012-12-09 10:15:00
5:35 AM,51.8,51.8,100,30.10,3.0,Calm,Calm,-,N/A,,Partly Cloudy,0,2012-12-09 10:35:00
5:55 AM,51.8,51.8,100,30.10,4.0,Calm,Calm,-,N/A,,Scattered Clouds,0,2012-12-09 10:55:00
6:15 AM,51.8,51.8,100,30.11,3.0,Calm,Calm,-,N/A,,Scattered Clouds,0,2012-12-09 11:15:00
6:35 AM,51.8,51.8,100,30.11,3.0,Calm,Calm,-,N/A,,Clear,0,2012-12-09 11:35:00
6:55 AM,51.8,51.8,100,30.11,3.0,Calm,Calm,-,N/A,,Partly Cloudy,0,2012-12-09 11:55:00
7:15 AM,51.8,51.8,100,30.11,2.0,Calm,Calm,-,N/A,,Scattered Clouds,0,2012-12-09 12:15:00
7:35 AM,51.8,51.8,100,30.12,3.0,Calm,Calm,-,N/A,,Mostly Cloudy,0,2012-12-09 12:35:00
7:55 AM,51.8,51.8,100,30.13,5.0,Calm,Calm,-,N/A,,Mostly Cloudy,0,2012-12-09 12:55:00
8:15 AM,53.6,53.6,100,30.13,4.0,Calm,Calm,-,N/A,,Partly Cloudy,0,2012-12-09 13:15:00
8:35 AM,55.4,55.4,100,30.13,3.0,Calm,Calm,-,N/A,,Clear,0,2012-12-09 13:35:00
8:55 AM,57.2,57.2,100,30.13,5.0,Calm,Calm,-,N/A,,Clear,0,2012-12-09 13:55:00
9:15 AM,64.4,60.8,88,30.14,7.0,Calm,Calm,-,N/A,,Mostly Cloudy,0,2012-12-09 14:15:00
9:35 AM,66.2,64.4,94,30.14,10.0,Calm,Calm,-,N/A,,Scattered Clouds,0,2012-12-09 14:35:00
9:55 AM,69.8,64.4,83,30.15,10.0,Calm,Calm,-,N/A,,Clear,0,2012-12-09 14:55:00
10:35 AM,73.4,66.2,78,30.14,10.0,South,4.6,-,N/A,,Clear,170,2012-12-09 15:35:00
10:55 AM,75.2,66.2,73,30.13,10.0,South,4.6,-,N/A,,Partly Cloudy,170,2012-12-09 15:55:00
11:15 AM,75.2,66.2,73,30.12,10.0,SSE,4.6,-,N/A,,Clear,160,2012-12-09 16:15:00
11:35 AM,75.2,66.2,73,30.11,10.0,South,6.9,-,N/A,,Clear,170,2012-12-09 16:35:00
11:55 AM,75.2,66.2,73,30.11,10.0,SSE,3.5,-,N/A,,Clear,160,2012-12-09 16:55:00
12:15 PM,77.0,66.2,69,30.09,10.0,SSE,6.9,-,N/A,,Scattered Clouds,150,2012-12-09 17:15:00
12:35 PM,77.0,66.2,69,30.08,10.0,SSW,5.8,-,N/A,,Scattered Clouds,200,2012-12-09 17:35:00
12:55 PM,77.0,66.2,69,30.07,10.0,South,5.8,-,N/A,,Clear,180,2012-12-09 17:55:00
1:15 PM,77.0,66.2,69,30.07,10.0,South,6.9,-,N/A,,Clear,170,2012-12-09 18:15:00
1:35 PM,77.0,66.2,69,30.06,10.0,South,6.9,-,N/A,,Clear,170,2012-12-09 18:35:00
1:55 PM,78.8,66.2,65,30.06,10.0,South,5.8,-,N/A,,Partly Cloudy,190,2012-12-09 18:55:00
2:15 PM,77.0,66.2,69,30.06,10.0,SSE,4.6,-,N/A,,Partly Cloudy,160,2012-12-09 19:15:00
2:35 PM,75.2,66.2,73,30.06,10.0,SE,4.6,-,N/A,,Scattered Clouds,130,2012-12-09 19:35:00
2:55 PM,75.2,66.2,73,30.06,10.0,SSE,3.5,-,N/A,,Scattered Clouds,150,2012-12-09 19:55:00
3:15 PM,75.2,66.2,73,30.05,10.0,SE,3.5,-,N/A,,Scattered Clouds,130,2012-12-09 20:15:00
3:35 PM,73.4,66.2,78,30.06,10.0,SE,3.5,-,N/A,,Scattered Clouds,130,2012-12-09 20:35:00
3:55 PM,73.4,66.2,78,30.05,10.0,ESE,4.6,-,N/A,,Partly Cloudy,120,2012-12-09 20:55:00
4:15 PM,73.4,66.2,78,30.05,10.0,East,3.5,-,N/A,,Scattered Clouds,100,2012-12-09 21:15:00
4:35 PM,71.6,66.2,83,30.05,10.0,Calm,Calm,-,N/A,,Mostly Cloudy,0,2012-12-09 21:35:00
4:55 PM,71.6,64.4,78,30.05,10.0,Calm,Calm,-,N/A,,Scattered Clouds,0,2012-12-09 21:55:00
5:15 PM,69.8,64.4,83,30.05,10.0,Calm,Calm,-,N/A,,Mostly Cloudy,0,2012-12-09 22:15:00
5:35 PM,69.8,64.4,83,30.06,10.0,Calm,Calm,-,N/A,,Overcast,0,2012-12-09 22:35:00
5:55 PM,69.8,64.4,83,30.05,10.0,Calm,Calm,-,N/A,,Mostly Cloudy,0,2012-12-09 22:55:00
6:15 PM,68.0,64.4,88,30.05,10.0,Calm,Calm,-,N/A,,Scattered Clouds,0,2012-12-09 23:15:00
6:35 PM,66.2,64.4,94,30.05,10.0,Calm,Calm,-,N/A,,Partly Cloudy,0,2012-12-09 23:35:00
6:55 PM,66.2,64.4,94,30.05,10.0,Calm,Calm,-,N/A,,Clear,0,2012-12-09 23:55:00
7:15 PM,66.2,64.4,94,30.04,10.0,Calm,Calm,-,N/A,,Scattered Clouds,0,2012-12-10 00:15:00
7:35 PM,66.2,64.4,94,30.05,10.0,Calm,Calm,-,N/A,,Partly Cloudy,0,2012-12-10 00:35:00
7:55 PM,66.2,64.4,94,30.04,10.0,Calm,Calm,-,N/A,,Partly Cloudy,0,2012-12-10 00:55:00
8:15 PM,66.2,64.4,94,30.04,10.0,Calm,Calm,-,N/A,,Partly Cloudy,0,2012-12-10 01:15:00
8:35 PM,66.2,64.4,94,30.04,10.0,Calm,Calm,-,N/A,,Scattered Clouds,0,2012-12-10 01:35:00
8:55 PM,66.2,64.4,94,30.04,10.0,Calm,Calm,-,N/A,,Mostly Cloudy,0,2012-12-10 01:55:00
9:15 PM,66.2,64.4,94,30.03,10.0,Calm,Calm,-,N/A,,Mostly Cloudy,0,2012-12-10 02:15:00
9:35 PM,66.2,64.4,94,30.02,10.0,Calm,Calm,-,N/A,,Partly Cloudy,0,2012-12-10 02:35:00
9:55 PM,66.2,64.4,94,30.02,10.0,Calm,Calm,-,N/A,,Clear,0,2012-12-10 02:55:00
10:15 PM,64.4,64.4,100,30.01,10.0,Calm,Calm,-,N/A,,Partly Cloudy,0,2012-12-10 03:15:00
10:35 PM,64.4,64.4,100,30.01,9.0,Calm,Calm,-,N/A,,Scattered Clouds,0,2012-12-10 03:35:00
10:55 PM,64.4,64.4,100,30.01,9.0,Calm,Calm,-,N/A,,Overcast,0,2012-12-10 03:55:00
11:15 PM,64.4,64.4,100,30.01,8.0,Calm,Calm,-,N/A,,Mostly Cloudy,0,2012-12-10 04:15:00
11:35 PM,64.4,64.4,100,30.00,7.0,Calm,Calm,-,N/A,,Partly Cloudy,0,2012-12-10 04:35:00
11:55 PM,64.4,62.6,94,29.99,6.0,Calm,Calm,-,N/A,,Clear,0,2012-12-10 04:55:00